| time (UTC) | temp C | wind direction | speed KPH | gust KPH | rain 1hr cm | rain 24hr cm | rain mn cm | humidity % | barometer mb |
| 20260507012511 | 6 | 224 | 14.5 | 20.9 | 0.00 | 0.89 | 0.28 | 80 | 1022.9 |
| 20260507012003 | 6 | 229 | 12.9 | 17.7 | 0.03 | 0.89 | 0.28 | 81 | 1022.7 |
| 20260507011504 | 6 | 231 | 6.4 | 16.1 | 0.03 | 0.89 | 0.28 | 82 | 1022.9 |
| 20260507011007 | 6 | 185 | 8.0 | 17.7 | 0.03 | 0.89 | 0.28 | 81 | 1022.9 |
| 20260507010504 | 6 | 226 | 11.3 | 20.9 | 0.03 | 0.89 | 0.28 | 81 | 1022.9 |
| 20260507010004 | 6 | 193 | 14.5 | 20.9 | 0.03 | 0.89 | 0.28 | 81 | 1023.0 |
| 20260507005508 | 5 | 195 | 11.3 | 16.1 | 0.03 | 0.89 | 0.28 | 81 | 1022.9 |
| 20260507005004 | 5 | 202 | 9.7 | 14.5 | 0.03 | 0.89 | 0.28 | 81 | 1022.8 |
| 20260507004508 | 5 | 194 | 6.4 | 12.9 | 0.03 | 0.89 | 0.28 | 81 | 1022.9 |
| 20260507004004 | 5 | 232 | 4.8 | 12.9 | 0.03 | 0.89 | 0.28 | 81 | 1022.7 |
| 20260507003508 | 5 | 212 | 6.4 | 12.9 | 0.03 | 0.89 | 0.28 | 81 | 1022.7 |
| 20260507003008 | 5 | 212 | 4.8 | 16.1 | 0.03 | 0.86 | 0.25 | 80 | 1022.8 |
| 20260507002503 | 5 | 220 | 6.4 | 19.3 | 0.03 | 0.86 | 0.25 | 80 | 1022.8 |
| 20260507002009 | 5 | 205 | 9.7 | 19.3 | 0.00 | 0.84 | 0.23 | 80 | 1022.8 |
| 20260507001510 | 5 | 214 | 9.7 | 29.0 | 0.05 | 0.84 | 0.23 | 80 | 1022.8 |
| 20260507001009 | 5 | 193 | 11.3 | 29.0 | 0.05 | 0.84 | 0.23 | 79 | 1022.6 |
| 20260507000503 | 5 | 238 | 14.5 | 24.1 | 0.05 | 0.84 | 0.23 | 80 | 1022.6 |
| 20260507000004 | 5 | 233 | 11.3 | 19.3 | 0.05 | 0.84 | 0.23 | 81 | 1022.6 |
| 20260506235504 | 5 | 235 | 6.4 | 11.3 | 0.05 | 0.84 | 0.23 | 81 | 1022.4 |
| 20260506235006 | 5 | 208 | 6.4 | 12.9 | 0.05 | 0.84 | 0.23 | 81 | 1022.5 |
| 20260506234506 | 4 | 204 | 4.8 | 19.3 | 0.05 | 0.84 | 0.23 | 81 | 1022.5 |
| 20260506234006 | 4 | 189 | 8.0 | 20.9 | 0.05 | 0.84 | 0.23 | 81 | 1022.5 |
| 20260506233505 | 4 | 227 | 9.7 | 25.7 | 0.08 | 0.84 | 0.23 | 81 | 1022.5 |
| 20260506233009 | 4 | 191 | 11.3 | 29.0 | 0.05 | 0.84 | 0.20 | 80 | 1022.6 |
| 20260506232506 | 4 | 233 | 16.1 | 49.9 | 0.05 | 0.84 | 0.20 | 79 | 1022.5 |
| 20260506232004 | 4 | 213 | 22.5 | 49.9 | 0.05 | 0.84 | 0.20 | 78 | 1022.6 |
| 20260506231519 | 5 | 251 | 20.9 | 30.6 | 0.00 | 0.79 | 0.18 | 80 | 1022.6 |
| 20260506231005 | 5 | 245 | 12.9 | 22.5 | 0.00 | 0.79 | 0.18 | 81 | 1022.3 |
| 20260506230508 | 5 | 244 | 8.0 | 20.9 | 0.00 | 0.79 | 0.18 | 82 | 1022.0 |
| 20260506230020 | 4 | 245 | 8.0 | 20.9 | 0.03 | 0.79 | 0.18 | 82 | 1022.0 |
| 20260506225507 | 4 | 260 | 8.0 | 20.9 | 0.08 | 0.79 | 0.18 | 82 | 1021.9 |
| 20260506225008 | 3 | 255 | 9.7 | 20.9 | 0.10 | 0.79 | 0.18 | 82 | 1021.7 |
| 20260506224512 | 3 | 258 | 8.0 | 30.6 | 0.13 | 0.79 | 0.18 | 81 | 1021.6 |
| 20260506224006 | 3 | 238 | 16.1 | 32.2 | 0.13 | 0.79 | 0.18 | 81 | 1021.6 |
| 20260506223504 | 3 | 216 | 16.1 | 32.2 | 0.10 | 0.76 | 0.15 | 81 | 1021.8 |
| 20260506223006 | 3 | 208 | 20.9 | 32.2 | 0.10 | 0.76 | 0.15 | 82 | 1022.0 |
| 20260506222509 | 3 | 250 | 11.3 | 20.9 | 0.10 | 0.76 | 0.15 | 82 | 1022.0 |
| 20260506222006 | 3 | 236 | 6.4 | 17.7 | 0.10 | 0.76 | 0.15 | 82 | 1021.9 |
| 20260506221507 | 3 | 233 | 9.7 | 27.4 | 0.10 | 0.76 | 0.15 | 82 | 1021.8 |
| 20260506221008 | 3 | 209 | 11.3 | 32.2 | 0.10 | 0.76 | 0.15 | 81 | 1021.7 |
| 20260506220508 | 3 | 185 | 17.7 | 35.4 | 0.10 | 0.76 | 0.15 | 81 | 1021.5 |
| 20260506220005 | 3 | 221 | 22.5 | 35.4 | 0.08 | 0.74 | 0.13 | 81 | 1021.7 |
| 20260506215507 | 3 | 199 | 19.3 | 29.0 | 0.05 | 0.71 | 0.08 | 81 | 1021.7 |
| 20260506215006 | 3 | 241 | 11.3 | 27.4 | 0.00 | 0.66 | 0.05 | 81 | 1021.6 |
| 20260506214520 | 3 | 209 | 4.8 | 8.0 | 0.00 | 0.64 | 0.03 | 82 | 1021.3 |
| 20260506213508 | 3 | 193 | 3.2 | 12.9 | 0.00 | 0.64 | 0.03 | 81 | 1020.7 |
| 20260506212506 | 3 | 175 | 4.8 | 14.5 | 0.00 | 0.64 | 0.03 | 81 | 1020.8 |
| 20260506212002 | 3 | 166 | 8.0 | 14.5 | 0.00 | 0.64 | 0.03 | 81 | 1020.8 |
| 20260506211004 | 3 | 185 | 8.0 | 14.5 | 0.00 | 0.64 | 0.03 | 81 | 1020.6 |
| 20260506210507 | 3 | 175 | 8.0 | 14.5 | 0.00 | 0.64 | 0.03 | 81 | 1020.6 |
| 20260506210016 | 3 | 198 | 9.7 | 14.5 | 0.00 | 0.64 | 0.03 | 81 | 1020.7 |
| 20260506205008 | 3 | 195 | 6.4 | 14.5 | 0.00 | 0.64 | 0.03 | 80 | 1020.4 |
| 20260506204008 | 3 | 213 | 8.0 | 17.7 | 0.00 | 0.64 | 0.00 | 80 | 1020.5 |
| 20260506203508 | 3 | 237 | 9.7 | 17.7 | 0.00 | 0.64 | 0.00 | 80 | 1020.3 |
| 20260506203012 | 3 | 233 | 8.0 | 20.9 | 0.00 | 0.64 | 0.00 | 80 | 1020.3 |
| 20260506202511 | 3 | 228 | 11.3 | 20.9 | 0.00 | 0.64 | 0.00 | 80 | 1020.1 |
| 20260506202008 | 3 | 225 | 12.9 | 20.9 | 0.00 | 0.64 | 0.00 | 80 | 1020.2 |
| 20260506201509 | 3 | 235 | 8.0 | 20.9 | 0.00 | 0.64 | 0.00 | 80 | 1020.1 |
| 20260506201008 | 3 | 224 | 12.9 | 20.9 | 0.00 | 0.64 | 0.00 | 81 | 1019.9 |
| 20260506200509 | 3 | 233 | 11.3 | 20.9 | 0.00 | 0.64 | 0.00 | 82 | 1019.8 |
| 20260506200009 | 3 | 245 | 8.0 | 14.5 | 0.00 | 0.64 | 0.00 | 82 | 1019.7 |
| 20260506195506 | 3 | 211 | 3.2 | 14.5 | 0.00 | 0.64 | 0.00 | 82 | 1019.8 |
| 20260506195009 | 3 | 227 | 6.4 | 14.5 | 0.00 | 0.64 | 0.00 | 82 | 1019.8 |
| 20260506194008 | 3 | 195 | 4.8 | 16.1 | 0.00 | 0.64 | 0.00 | 82 | 1020.0 |
| 20260506193508 | 3 | 217 | 6.4 | 16.1 | 0.00 | 0.64 | 0.00 | 82 | 1020.0 |
| 20260506192508 | 3 | 226 | 14.5 | 30.6 | 0.00 | 0.64 | 0.00 | 81 | 1019.9 |
| 20260506192010 | 3 | 251 | 16.1 | 30.6 | 0.00 | 0.64 | 0.00 | 80 | 1020.1 |
| 20260506191512 | 3 | 200 | 14.5 | 20.9 | 0.00 | 0.61 | 0.00 | 79 | 1020.3 |
| 20260506191010 | 3 | 175 | 6.4 | 14.5 | 0.00 | 0.61 | 0.00 | 79 | 1020.0 |
| 20260506190023 | 3 | 249 | 6.4 | 12.9 | 0.00 | 0.61 | 0.00 | 80 | 1019.8 |
| 20260506185509 | 3 | 269 | 6.4 | 12.9 | 0.00 | 0.61 | 0.00 | 80 | 1019.8 |
| 20260506185007 | 3 | 262 | 4.8 | 12.9 | 0.00 | 0.61 | 0.00 | 80 | 1019.7 |
| 20260506184526 | 3 | 254 | 3.2 | 12.9 | 0.00 | 0.61 | 0.00 | 80 | 1019.6 |
| 20260506184007 | 3 | 265 | 4.8 | 11.3 | 0.00 | 0.61 | 0.00 | 80 | 1019.5 |
| 20260506183015 | 3 | 240 | 4.8 | 19.3 | 0.00 | 0.61 | 0.00 | 80 | 1019.4 |
| 20260506182506 | 3 | 258 | 11.3 | 19.3 | 0.00 | 0.61 | 0.00 | 80 | 1019.4 |
| 20260506182013 | 3 | 246 | 9.7 | 16.1 | 0.00 | 0.61 | 0.00 | 80 | 1019.3 |
| 20260506181008 | 3 | 245 | 6.4 | 22.5 | 0.00 | 0.61 | 0.00 | 80 | 1019.0 |
| 20260506180511 | 3 | 268 | 12.9 | 22.5 | 0.00 | 0.61 | 0.00 | 80 | 1019.1 |
| 20260506174518 | 3 | 263 | 11.3 | 20.9 | 0.00 | 0.61 | 0.00 | 80 | 1019.1 |
| 20260506174012 | 3 | 267 | 8.0 | 24.1 | 0.00 | 0.61 | 0.00 | 79 | 1019.1 |
| 20260506173508 | 3 | 255 | 14.5 | 24.1 | 0.00 | 0.61 | 0.00 | 79 | 1019.1 |
| 20260506173008 | 3 | 245 | 12.9 | 27.4 | 0.00 | 0.61 | 0.00 | 78 | 1019.2 |
| 20260506172504 | 4 | 247 | 16.1 | 27.4 | 0.00 | 0.61 | 0.00 | 78 | 1019.2 |
| 20260506172003 | 4 | 245 | 19.3 | 27.4 | 0.00 | 0.61 | 0.00 | 78 | 1019.2 |
| 20260506171507 | 4 | 251 | 16.1 | 25.7 | 0.00 | 0.61 | 0.00 | 78 | 1019.2 |
| 20260506171005 | 4 | 241 | 17.7 | 25.7 | 0.00 | 0.61 | 0.00 | 78 | 1019.2 |
| 20260506170504 | 4 | 223 | 12.9 | 25.7 | 0.00 | 0.61 | 0.00 | 79 | 1019.3 |
| 20260506170004 | 3 | 243 | 12.9 | 20.9 | 0.00 | 0.61 | 0.00 | 79 | 1019.2 |
| 20260506165504 | 3 | 238 | 9.7 | 24.1 | 0.00 | 0.61 | 0.00 | 79 | 1019.2 |
| 20260506165005 | 4 | 239 | 11.3 | 24.1 | 0.00 | 0.61 | 0.00 | 78 | 1019.3 |
| 20260506164506 | 4 | 250 | 12.9 | 25.7 | 0.00 | 0.61 | 0.00 | 78 | 1019.2 |
| 20260506164009 | 4 | 243 | 12.9 | 25.7 | 0.00 | 0.61 | 0.00 | 77 | 1019.2 |
| 20260506163006 | 4 | 229 | 12.9 | 22.5 | 0.00 | 0.61 | 0.00 | 77 | 1019.3 |
| 20260506161504 | 4 | 197 | 9.7 | 16.1 | 0.00 | 0.61 | 0.00 | 78 | 1019.3 |
| 20260506161004 | 4 | 200 | 8.0 | 14.5 | 0.00 | 0.61 | 0.00 | 79 | 1019.2 |
| 20260506160504 | 4 | 225 | 4.8 | 14.5 | 0.00 | 0.61 | 0.00 | 79 | 1019.3 |
| 20260506160015 | 4 | 171 | 8.0 | 14.5 | 0.00 | 0.61 | 0.00 | 78 | 1019.2 |
| 20260506155505 | 4 | 185 | 3.2 | 12.9 | 0.00 | 0.61 | 0.00 | 78 | 1019.3 |
| 20260506155008 | 4 | 200 | 6.4 | 17.7 | 0.00 | 0.61 | 0.00 | 78 | 1019.3 |
| 20260506154511 | 5 | 197 | 9.7 | 20.9 | 0.00 | 0.61 | 0.00 | 77 | 1019.3 |
| 20260506154007 | 5 | 157 | 9.7 | 20.9 | 0.00 | 0.61 | 0.00 | 76 | 1019.3 |
| 20260506153503 | 5 | 185 | 14.5 | 19.3 | 0.00 | 0.61 | 0.00 | 75 | 1019.3 |
| 20260506153009 | 5 | 202 | 11.3 | 20.9 | 0.00 | 0.61 | 0.00 | 74 | 1019.3 |
| 20260506152502 | 5 | 229 | 12.9 | 20.9 | 0.00 | 0.61 | 0.00 | 74 | 1019.3 |
| 20260506152006 | 5 | 256 | 4.8 | 14.5 | 0.00 | 0.61 | 0.00 | 74 | 1019.2 |
| 20260506151514 | 5 | 219 | 3.2 | 8.0 | 0.00 | 0.61 | 0.00 | 74 | 1019.2 |
| 20260506151003 | 5 | 185 | 0.0 | 6.4 | 0.00 | 0.61 | 0.00 | 74 | 1019.2 |
| 20260506150013 | 5 | 172 | 3.2 | 9.7 | 0.00 | 0.61 | 0.00 | 73 | 1019.4 |
| 20260506145508 | 5 | 196 | 3.2 | 9.7 | 0.00 | 0.61 | 0.00 | 73 | 1019.4 |
| 20260506145006 | 5 | 206 | 4.8 | 14.5 | 0.00 | 0.61 | 0.00 | 73 | 1019.3 |
| 20260506144509 | 5 | 229 | 4.8 | 16.1 | 0.00 | 0.61 | 0.00 | 73 | 1019.3 |
| 20260506144006 | 5 | 255 | 6.4 | 17.7 | 0.00 | 0.61 | 0.00 | 72 | 1019.3 |
| 20260506143506 | 5 | 223 | 9.7 | 19.3 | 0.00 | 0.61 | 0.00 | 72 | 1019.3 |
| 20260506143013 | 5 | 274 | 11.3 | 20.9 | 0.00 | 0.61 | 0.00 | 72 | 1019.3 |
| 20260506142503 | 5 | 243 | 12.9 | 24.1 | 0.00 | 0.61 | 0.00 | 72 | 1019.2 |
| 20260506142002 | 5 | 220 | 11.3 | 27.4 | 0.00 | 0.61 | 0.00 | 71 | 1019.1 |
| 20260506141504 | 5 | 246 | 17.7 | 27.4 | 0.00 | 0.61 | 0.00 | 72 | 1019.1 |
| 20260506141005 | 6 | 251 | 16.1 | 30.6 | 0.00 | 0.61 | 0.00 | 72 | 1019.1 |
| 20260506140505 | 6 | 229 | 22.5 | 30.6 | 0.00 | 0.61 | 0.00 | 71 | 1019.1 |
| 20260506140003 | 6 | 247 | 16.1 | 27.4 | 0.00 | 0.61 | 0.00 | 72 | 1019.1 |
| 20260506135504 | 6 | 248 | 12.9 | 25.7 | 0.00 | 0.61 | 0.61 | 74 | 1019.2 |
| 20260506135002 | 6 | 211 | 16.1 | 25.7 | 0.00 | 0.61 | 0.61 | 74 | 1019.1 |
| 20260506134506 | 6 | 235 | 12.9 | 29.0 | 0.00 | 0.61 | 0.61 | 74 | 1018.9 |
| 20260506134002 | 6 | 245 | 17.7 | 33.8 | 0.00 | 0.61 | 0.61 | 73 | 1018.9 |
| 20260506133004 | 7 | 237 | 12.9 | 30.6 | 0.00 | 0.61 | 0.61 | 74 | 1018.9 |
| 20260506131503 | 7 | 236 | 11.3 | 27.4 | 0.00 | 0.61 | 0.61 | 75 | 1018.8 |
| 20260506130506 | 7 | 259 | 17.7 | 25.7 | 0.00 | 0.61 | 0.61 | 77 | 1018.6 |
| 20260506130008 | 7 | 268 | 12.9 | 22.5 | 0.00 | 0.61 | 0.61 | 76 | 1018.6 |
| 20260506125502 | 7 | 256 | 12.9 | 24.1 | 0.00 | 0.61 | 0.61 | 76 | 1018.6 |
| 20260506125005 | 7 | 250 | 14.5 | 24.1 | 0.00 | 0.61 | 0.61 | 77 | 1018.7 |
| 20260506124513 | 7 | 237 | 14.5 | 24.1 | 0.00 | 0.61 | 0.61 | 77 | 1018.7 |
| 20260506124002 | 7 | 251 | 11.3 | 19.3 | 0.00 | 0.61 | 0.61 | 78 | 1018.7 |
| 20260506122507 | 7 | 241 | 14.5 | 27.4 | 0.00 | 0.61 | 0.61 | 79 | 1018.7 |
| 20260506122003 | 7 | 256 | 17.7 | 27.4 | 0.00 | 0.61 | 0.61 | 79 | 1018.7 |
| 20260506121505 | 7 | 239 | 12.9 | 22.5 | 0.00 | 0.61 | 0.61 | 80 | 1018.6 |
| 20260506121003 | 7 | 226 | 14.5 | 24.1 | 0.00 | 0.61 | 0.61 | 81 | 1018.7 |
| 20260506120004 | 7 | 258 | 14.5 | 27.4 | 0.00 | 0.61 | 0.61 | 82 | 1018.6 |
| 20260506115503 | 7 | 266 | 14.5 | 27.4 | 0.03 | 0.61 | 0.61 | 83 | 1018.7 |
| 20260506115007 | 7 | 237 | 14.5 | 27.4 | 0.08 | 0.61 | 0.61 | 83 | 1018.6 |
| 20260506114503 | 7 | 247 | 16.1 | 32.2 | 0.08 | 0.61 | 0.61 | 84 | 1018.6 |
| 20260506114006 | 7 | 256 | 12.9 | 32.2 | 0.08 | 0.61 | 0.61 | 84 | 1018.6 |
| 20260506113503 | 7 | 265 | 14.5 | 30.6 | 0.10 | 0.61 | 0.61 | 85 | 1018.6 |
| 20260506113004 | 7 | 228 | 16.1 | 30.6 | 0.10 | 0.61 | 0.61 | 85 | 1018.6 |
| 20260506111004 | 7 | 224 | 19.3 | 40.2 | 0.23 | 0.58 | 0.58 | 85 | 1018.8 |
| 20260506110504 | 7 | 202 | 25.7 | 46.7 | 0.46 | 0.58 | 0.58 | 85 | 1018.6 |
| 20260506110006 | 7 | 229 | 25.7 | 56.3 | 0.56 | 0.58 | 0.58 | 85 | 1018.6 |
| 20260506105507 | 7 | 185 | 30.6 | 56.3 | 0.53 | 0.56 | 0.56 | 85 | 1018.5 |
| 20260506105004 | 8 | 257 | 17.7 | 29.0 | 0.48 | 0.53 | 0.53 | 86 | 1018.2 |
| 20260506104509 | 8 | 223 | 12.9 | 27.4 | 0.48 | 0.53 | 0.53 | 86 | 1018.1 |
| 20260506104004 | 8 | 225 | 11.3 | 29.0 | 0.46 | 0.51 | 0.51 | 86 | 1018.0 |
| 20260506103508 | 8 | 255 | 17.7 | 29.0 | 0.46 | 0.48 | 0.48 | 86 | 1018.0 |
| 20260506103018 | 9 | 259 | 16.1 | 27.4 | 0.46 | 0.48 | 0.48 | 85 | 1017.9 |
| 20260506102504 | 8 | 247 | 14.5 | 27.4 | 0.43 | 0.46 | 0.46 | 85 | 1017.8 |
| 20260506101506 | 8 | 235 | 8.0 | 24.1 | 0.41 | 0.43 | 0.43 | 84 | 1017.8 |
| 20260506101008 | 9 | 243 | 12.9 | 25.7 | 0.36 | 0.36 | 0.36 | 82 | 1017.9 |
| 20260506100504 | 10 | 206 | 16.1 | 27.4 | 0.13 | 0.13 | 0.13 | 83 | 1017.8 |
| 20260506100005 | 11 | 313 | 11.3 | 29.0 | 0.03 | 0.03 | 0.03 | 84 | 1016.9 |
| 20260506095504 | 10 | 354 | 11.3 | 29.0 | 0.03 | 0.03 | 0.03 | 84 | 1016.4 |
| 20260506095005 | 10 | 359 | 16.1 | 24.1 | 0.03 | 0.03 | 0.03 | 84 | 1016.4 |
| 20260506094506 | 10 | 341 | 12.9 | 30.6 | 0.03 | 0.03 | 0.03 | 84 | 1016.5 |
| 20260506094003 | 10 | 353 | 16.1 | 30.6 | 0.03 | 0.03 | 0.03 | 83 | 1016.6 |
| 20260506093507 | 10 | 16 | 17.7 | 30.6 | 0.03 | 0.03 | 0.03 | 83 | 1016.7 |
| 20260506093013 | 10 | 351 | 20.9 | 30.6 | 0.03 | 0.03 | 0.03 | 83 | 1016.8 |
| 20260506092507 | 10 | 345 | 17.7 | 29.0 | 0.03 | 0.03 | 0.03 | 83 | 1016.9 |
| 20260506092004 | 11 | 342 | 17.7 | 30.6 | 0.03 | 0.03 | 0.03 | 82 | 1016.8 |
| 20260506091517 | 11 | 340 | 19.3 | 32.2 | 0.00 | 0.00 | 0.00 | 82 | 1016.9 |
| 20260506091004 | 11 | 330 | 20.9 | 35.4 | 0.00 | 0.00 | 0.00 | 81 | 1016.9 |
| 20260506090501 | 11 | 324 | 24.1 | 35.4 | 0.00 | 0.00 | 0.00 | 80 | 1016.9 |
| 20260506090015 | 11 | 343 | 22.5 | 38.6 | 0.00 | 0.00 | 0.00 | 80 | 1016.8 |
| 20260506085505 | 11 | 331 | 20.9 | 38.6 | 0.00 | 0.00 | 0.00 | 78 | 1016.6 |
| 20260506085008 | 11 | 1 | 22.5 | 38.6 | 0.00 | 0.00 | 0.00 | 76 | 1016.5 |
| 20260506084511 | 11 | 357 | 25.7 | 38.6 | 0.00 | 0.00 | 0.00 | 75 | 1016.3 |
| 20260506084005 | 11 | 22 | 25.7 | 37.0 | 0.00 | 0.00 | 0.00 | 75 | 1016.1 |
| 20260506083507 | 11 | 331 | 17.7 | 40.2 | 0.00 | 0.00 | 0.00 | 74 | 1016.1 |
| 20260506083009 | 11 | 12 | 22.5 | 40.2 | 0.00 | 0.00 | 0.00 | 74 | 1016.1 |
| 20260506082506 | 11 | 324 | 17.7 | 32.2 | 0.00 | 0.00 | 0.00 | 74 | 1016.1 |
| 20260506082012 | 11 | 13 | 16.1 | 33.8 | 0.00 | 0.00 | 0.00 | 74 | 1016.1 |
| 20260506081509 | 11 | 25 | 17.7 | 33.8 | 0.00 | 0.00 | 0.00 | 74 | 1016.0 |
| 20260506081011 | 11 | 356 | 14.5 | 37.0 | 0.00 | 0.00 | 0.00 | 74 | 1016.0 |
| 20260506080507 | 11 | 357 | 16.1 | 37.0 | 0.00 | 0.00 | 0.00 | 74 | 1016.0 |
| 20260506073009 | 12 | 355 | 12.9 | 27.4 | 0.00 | 0.00 | 0.00 | 74 | 1015.9 |
| 20260506072003 | 12 | 345 | 14.5 | 27.4 | 0.00 | 0.00 | 0.00 | 73 | 1016.0 |
| 20260506071519 | 12 | 311 | 12.9 | 29.0 | 0.00 | 0.00 | 0.00 | 73 | 1016.1 |
| 20260506071006 | 12 | 343 | 17.7 | 29.0 | 0.00 | 0.00 | 0.00 | 72 | 1016.1 |
| 20260506070507 | 12 | 359 | 12.9 | 33.8 | 0.00 | 0.00 | 0.00 | 72 | 1016.1 |
| 20260506062510 | 12 | 6 | 9.7 | 30.6 | 0.00 | 0.00 | 0.00 | 72 | 1016.7 |
| 20260506062011 | 12 | 10 | 14.5 | 30.6 | 0.00 | 0.00 | 0.00 | 71 | 1016.7 |
| 20260506061007 | 13 | 360 | 16.1 | 33.8 | 0.00 | 0.00 | 0.00 | 68 | 1016.7 |
| 20260506060504 | 13 | 333 | 19.3 | 33.8 | 0.00 | 0.00 | 0.00 | 68 | 1016.8 |
| 20260506051003 | 13 | 10 | 16.1 | 30.6 | 0.00 | 0.00 | 0.00 | 69 | 1017.9 |
| 20260506050503 | 13 | 360 | 16.1 | 38.6 | 0.00 | 0.00 | 0.00 | 66 | 1017.8 |
| 20260506045005 | 13 | 337 | 22.5 | 37.0 | 0.00 | 0.00 | 0.00 | 63 | 1017.9 |
| 20260506044519 | 14 | 349 | 22.5 | 37.0 | 0.00 | 0.00 | 0.00 | 63 | 1017.8 |
| 20260506044006 | 14 | 324 | 25.7 | 35.4 | 0.00 | 0.00 | 0.00 | 62 | 1017.8 |
| 20260506043503 | 14 | 327 | 24.1 | 35.4 | 0.00 | 0.00 | 0.00 | 61 | 1017.9 |
| 20260506043004 | 14 | 343 | 17.7 | 38.6 | 0.00 | 0.00 | 0.00 | 61 | 1018.0 |
| 20260506042504 | 14 | 333 | 27.4 | 37.0 | 0.00 | 0.00 | 0.00 | 62 | 1017.9 |
| 20260506042004 | 14 | 309 | 19.3 | 38.6 | 0.00 | 0.00 | 0.00 | 62 | 1018.0 |
| 20260506041505 | 14 | 320 | 22.5 | 38.6 | 0.00 | 0.00 | 0.00 | 63 | 1018.1 |
| 20260506041004 | 13 | 352 | 22.5 | 37.0 | 0.00 | 0.00 | 0.00 | 64 | 1018.0 |
| 20260506040504 | 14 | 332 | 22.5 | 33.8 | 0.00 | 0.00 | 0.00 | 63 | 1018.1 |
| 20260506040008 | 13 | 337 | 22.5 | 33.8 | 0.00 | 0.00 | 0.00 | 63 | 1018.1 |
| 20260506035503 | 13 | 311 | 22.5 | 38.6 | 0.00 | 0.00 | 0.00 | 62 | 1018.1 |
| 20260506035004 | 13 | 327 | 22.5 | 38.6 | 0.00 | 0.00 | 0.00 | 63 | 1018.2 |
| 20260506034506 | 13 | 328 | 24.1 | 37.0 | 0.00 | 0.00 | 0.00 | 63 | 1018.3 |
| 20260506033505 | 13 | 340 | 19.3 | 30.6 | 0.00 | 0.00 | 0.00 | 64 | 1018.5 |
| 20260506033006 | 13 | 324 | 16.1 | 24.1 | 0.00 | 0.00 | 0.00 | 64 | 1018.6 |
| 20260506032506 | 13 | 328 | 14.5 | 30.6 | 0.00 | 0.00 | 0.00 | 65 | 1018.8 |
| 20260506032011 | 13 | 303 | 16.1 | 30.6 | 0.00 | 0.00 | 0.00 | 65 | 1019.0 |
| 20260506031505 | 13 | 316 | 14.5 | 29.0 | 0.00 | 0.00 | 0.00 | 66 | 1019.1 |
| 20260506031005 | 13 | 318 | 17.7 | 30.6 | 0.00 | 0.00 | 0.00 | 65 | 1019.2 |
| 20260506030503 | 12 | 314 | 19.3 | 30.6 | 0.00 | 0.00 | 0.00 | 64 | 1019.2 |
| 20260506030006 | 12 | 314 | 19.3 | 25.7 | 0.00 | 0.00 | 0.00 | 65 | 1019.2 |
| 20260506025506 | 12 | 298 | 19.3 | 29.0 | 0.00 | 0.00 | 0.00 | 65 | 1019.1 |
| 20260506025004 | 13 | 297 | 14.5 | 29.0 | 0.00 | 0.00 | 0.00 | 66 | 1019.2 |
| 20260506024510 | 13 | 315 | 16.1 | 29.0 | 0.00 | 0.00 | 0.00 | 65 | 1019.3 |
| 20260506024010 | 13 | 318 | 14.5 | 29.0 | 0.00 | 0.00 | 0.00 | 65 | 1019.4 |
| 20260506023014 | 13 | 327 | 16.1 | 27.4 | 0.00 | 0.00 | 0.00 | 65 | 1019.6 |
| 20260506022505 | 13 | 308 | 17.7 | 27.4 | 0.00 | 0.00 | 0.00 | 65 | 1019.6 |
| 20260506022006 | 13 | 301 | 22.5 | 27.4 | 0.00 | 0.00 | 0.00 | 64 | 1019.8 |
| 20260506021511 | 13 | 314 | 17.7 | 27.4 | 0.00 | 0.00 | 0.00 | 66 | 1019.8 |
| 20260506021004 | 12 | 312 | 14.5 | 24.1 | 0.00 | 0.00 | 0.00 | 67 | 1019.9 |
| 20260506020507 | 12 | 311 | 14.5 | 20.9 | 0.00 | 0.00 | 0.00 | 68 | 1020.2 |
| 20260506015505 | 12 | 316 | 16.1 | 20.9 | 0.00 | 0.00 | 0.00 | 71 | 1020.3 |
| 20260506015005 | 12 | 325 | 12.9 | 22.5 | 0.00 | 0.00 | 0.00 | 72 | 1020.2 |
| 20260506014508 | 12 | 326 | 12.9 | 25.7 | 0.00 | 0.00 | 0.00 | 71 | 1020.2 |
| 20260506014004 | 12 | 339 | 14.5 | 25.7 | 0.00 | 0.00 | 0.00 | 71 | 1020.4 |
| 20260506013504 | 12 | 334 | 12.9 | 25.7 | 0.00 | 0.00 | 0.00 | 71 | 1020.4 |